H1 CPF 2 NER 2021 2 10 9 041 01 glonass132 H2 1401201 9132 39620 2021 2 10 0 0 0 2021 2 13 23 45 0 900 1 1 0 0 0 1 H9 10 0 59255 0.00000 0 15829939.885 15679896.550 12491922.312 10 0 59255 900.00000 0 16724679.395 16725781.730 9644672.593 10 0 59255 1800.00000 0 17481198.071 17411115.763 6610848.887 10 0 59255 2700.00000 0 18041419.299 17747510.586 3449123.492 10 0 59255 3600.00000 0 18352546.927 17759098.130 220655.326 10 0 59255 4500.00000 0 18369429.526 17481321.344 -3012079.991 10 0 59255 5400.00000 0 18056623.422 16959265.901 -6186487.409 10 0 59255 6300.00000 0 17390067.457 16245601.866 -9241054.881 10 0 59255 7200.00000 0 16358298.253 15398221.034 -12116538.276 10 0 59255 8100.00000 0 14963153.494 14477668.454 -14757106.396 10 0 59255 9000.00000 0 13219931.672 13544475.437 -17111424.184 10 0 59255 9900.00000 0 11156999.234 12656505.765 -19133653.103 10 0 59255 10800.00000 0 8814858.886 11866426.623 -20784349.105 10 0 59255 11700.00000 0 6244715.240 11219410.887 -22031240.383 10 0 59255 12600.00000 0 3506595.168 10751168.153 -22849869.030 10 0 59255 13500.00000 0 667098.935 10486388.398 -23224083.356 10 0 59255 14400.00000 0 -2203126.030 10437665.156 -23146370.127 10 0 59255 15300.00000 0 -5032084.703 10604945.118 -22618019.042 10 0 59255 16200.00000 0 -7749195.671 10975528.990 -21649114.890 10 0 59255 17100.00000 0 -10287999.133 11524625.106 -20258356.158 10 0 59255 18000.00000 0 -12588698.341 12216433.728 -18472702.384 10 0 59255 18900.00000 0 -14600427.857 13005717.148 -16326856.054 10 0 59255 19800.00000 0 -16283153.024 13839789.601 -13862588.390 10 0 59255 20700.00000 0 -17609120.359 14660842.626 -11127921.943 10 0 59255 21600.00000 0 -18563797.668 15408506.690 -8176186.074 10 0 59255 22500.00000 0 -19146264.339 16022539.318 -5064964.462 10 0 59255 23400.00000 0 -19369035.934 16445524.198 -1854956.396 10 0 59255 24300.00000 0 -19257331.618 16625465.123 1391224.370 10 0 59255 25200.00000 0 -18847817.031 16518163.083 4610288.009 10 0 59255 26100.00000 0 -18186877.812 16089274.355 7739518.137 10 0 59255 27000.00000 0 -17328499.113 15315961.392 10718006.386 10 0 59255 27900.00000 0 -16331843.103 14188066.111 13487846.601 10 0 59255 28800.00000 0 -15258628.975 12708756.058 15995264.321 10 0 59255 29700.00000 0 -14170427.777 10894616.576 18191659.273 10 0 59255 30600.00000 0 -13125987.266 8775185.872 20034540.817 10 0 59255 31500.00000 0 -12178699.851 6391953.431 21488338.946 10 0 59255 32400.00000 0 -11374319.762 3796864.551 22525076.460 10 0 59255 33300.00000 0 -10749024.290 1050394.102 23124890.961 10 0 59255 34200.00000 0 -10327898.878 -1780729.881 23276398.393 10 0 59255 35100.00000 0 -10123907.576 -4626058.365 22976892.994 10 0 59255 36000.00000 0 -10137389.941 -7414104.829 22232381.523 10 0 59255 36900.00000 0 -10356103.443 -10075070.043 21057452.486 10 0 59255 37800.00000 0 -10755807.984 -12543496.893 19474983.912 10 0 59255 38700.00000 0 -11301366.820 -14760747.325 17515695.845 10 0 59255 39600.00000 0 -11948317.186 -16677200.830 15217556.263 10 0 59255 40500.00000 0 -12644844.693 -18254085.503 12625051.522 10 0 59255 41400.00000 0 -13334079.161 -19464867.716 9788334.638 10 0 59255 42300.00000 0 -13956616.319 -20296144.199 6762266.888 10 0 59255 43200.00000 0 -14453160.495 -20748000.778 3605370.053 10 0 59255 44100.00000 0 -14767178.248 -20833823.555 378708.289 10 0 59255 45000.00000 0 -14847452.206 -20579570.731 -2855279.900 10 0 59255 45900.00000 0 -14650428.182 -20022535.404 -6033978.085 10 0 59255 46800.00000 0 -14142256.823 -19209650.651 -9095794.564 10 0 59255 47700.00000 0 -13300443.347 -18195407.184 -11981348.587 10 0 59255 48600.00000 0 -12115034.811 -17039470.040 -14634617.739 10 0 59255 49500.00000 0 -10589293.224 -15804093.517 -17004024.555 10 0 59255 50400.00000 0 -8739823.979 -14551442.129 -19043441.292 10 0 59255 51300.00000 0 -6596151.566 -13340929.693 -20713093.216 10 0 59255 52200.00000 0 -4199757.381 -12226688.088 -21980342.526 10 0 59255 53100.00000 0 -1602617.090 -11255272.368 -22820336.940 10 0 59255 54000.00000 0 1134704.103 -10463699.163 -23216509.566 10 0 59255 54900.00000 0 3945321.146 -9877901.809 -23160919.227 10 0 59255 55800.00000 0 6758570.836 -9511668.315 -22654423.343 10 0 59255 56700.00000 0 9502720.802 -9366108.158 -21706678.692 10 0 59255 57600.00000 0 12107733.394 -9429671.640 -20335968.611 10 0 59255 58500.00000 0 14507969.058 -9678722.073 -18568858.724 10 0 59255 59400.00000 0 16644715.871 -10078637.468 -16439686.847 10 0 59255 60300.00000 0 18468438.691 -10585395.464 -13989896.198 10 0 59255 61200.00000 0 19940652.795 -11147574.339 -11267224.674 10 0 59255 62100.00000 0 21035342.721 -11708684.621 -8324766.125 10 0 59255 63000.00000 0 21739866.284 -12209731.287 -5219922.627 10 0 59255 63900.00000 0 22055305.742 -12591896.300 -2013269.417 10 0 59255 64800.00000 0 21996252.004 -12799225.844 1232643.838 10 0 59255 65700.00000 0 21590032.208 -12781206.375 4454530.271 10 0 59255 66600.00000 0 20875415.014 -12495118.542 7589615.449 10 0 59255 67500.00000 0 19900850.452 -11908067.839 10576873.363 10 0 59255 68400.00000 0 18722320.907 -10998605.083 13358223.218 10 0 59255 69300.00000 0 17400896.221 -9757867.833 15879662.690 10 0 59255 70200.00000 0 16000097.902 -8190194.680 18092315.196 10 0 59255 71100.00000 0 14583184.864 -6313186.985 19953371.052 10 0 59255 72000.00000 0 13210475.640 -4157216.271 21426904.939 10 0 59255 72900.00000 0 11936819.483 -1764398.716 22484555.147 10 0 59255 73800.00000 0 10809321.677 812919.720 23106053.127 10 0 59255 74700.00000 0 9865416.926 3514103.817 23279594.882 10 0 59255 75600.00000 0 9131369.494 6272514.540 23002048.971 10 0 59255 76500.00000 0 8621260.575 9018044.880 22278998.786 10 0 59255 77400.00000 0 8336502.947 11679801.764 21124619.753 10 0 59255 78300.00000 0 8265901.033 14188824.224 19561394.832 10 0 59255 79200.00000 0 8386252.094 16480726.964 17619674.377 10 0 59255 80100.00000 0 8663462.109 18498161.591 15337088.931 10 0 59255 81000.00000 0 9054128.917 20192995.480 12757825.957 10 0 59255 81900.00000 0 9507526.100 21528119.762 9931783.685 10 0 59255 82800.00000 0 9967904.730 22478812.836 6913617.500 10 0 59255 83700.00000 0 10377016.983 23033604.011 3761696.086 10 0 59255 84600.00000 0 10676756.399 23194602.096 536986.241 10 0 59255 85500.00000 0 10811804.577 22977275.532 -2698113.183 10 0 59256 0.00000 0 10732173.586 22409693.233 -5880966.744 10 0 59256 900.00000 0 10395536.879 21531257.144 -8949905.489 10 0 59256 1800.00000 0 9769251.574 20390979.227 -11845414.055 10 0 59256 2700.00000 0 8831984.016 19045373.426 -14511280.642 10 0 59256 3600.00000 0 7574870.999 17556050.413 -16895686.973 10 0 59256 4500.00000 0 6002164.309 15987114.725 -18952217.469 10 0 59256 5400.00000 0 4131329.662 14402472.700 -20640767.879 10 0 59256 6300.00000 0 1992592.817 12863163.571 -21928335.386 10 0 59256 7200.00000 0 -372051.011 11424825.514 -22789674.122 10 0 59256 8100.00000 0 -2910325.979 10135403.132 -23207802.575 10 0 59256 9000.00000 0 -5561603.160 9033193.035 -23174351.934 10 0 59256 9900.00000 0 -8259188.427 8145310.452 -22689747.323 10 0 59256 10800.00000 0 -10932876.886 7486642.205 -21763217.099 10 0 59256 11700.00000 0 -13511668.217 7059331.070 -20412628.589 10 0 59256 12600.00000 0 -15926529.783 6852814.192 -18664152.217 10 0 59256 13500.00000 0 -18113091.830 6844414.555 -16551759.424 10 0 59256 14400.00000 0 -20014161.326 7000460.819 -14116563.397 10 0 59256 15300.00000 0 -21581948.101 7277888.040 -11406015.105 10 0 59256 16200.00000 0 -22779908.951 7626250.808 -8472970.479 10 0 59256 17100.00000 0 -23584131.395 7990062.305 -5374647.526 10 0 59256 18000.00000 0 -23984198.425 8311358.494 -2171494.952 10 0 59256 18900.00000 0 -23983497.919 8532376.703 1074004.104 10 0 59256 19800.00000 0 -23598964.419 8598232.920 4298568.150 10 0 59256 20700.00000 0 -22860265.401 8459482.250 7439367.097 10 0 59256 21600.00000 0 -21808468.224 8074452.293 10435259.631 10 0 59256 22500.00000 0 -20494246.055 7411249.297 13227992.622 10 0 59256 23400.00000 0 -18975700.623 6449351.517 15763338.088 10 0 59256 24300.00000 0 -17315895.572 5180722.220 17992145.223 10 0 59256 25200.00000 0 -15580205.761 3610395.672 19871287.175 10 0 59256 26100.00000 0 -13833594.986 1756512.058 21364484.927 10 0 59256 27000.00000 0 -12137936.604 -350199.358 22442993.576 10 0 59256 27900.00000 0 -10549488.820 -2667466.497 23086139.382 10 0 59256 28800.00000 0 -9116629.094 -5143005.809 23281699.018 10 0 59256 29700.00000 0 -7877940.517 -7716474.648 23026115.593 10 0 59256 30600.00000 0 -6860727.767 -10321763.692 22324549.020 10 0 59256 31500.00000 0 -6080022.156 -12889534.696 21190761.174 10 0 59256 32400.00000 0 -5538114.807 -15349899.405 19646839.151 10 0 59256 33300.00000 0 -5224635.178 -17635129.962 17722762.496 10 0 59256 34200.00000 0 -5117169.885 -19682290.007 15455822.909 10 0 59256 35100.00000 0 -5182394.571 -21435679.158 12889907.282 10 0 59256 36000.00000 0 -5377670.732 -22848991.123 10074657.169 10 0 59256 36900.00000 0 -5653040.381 -23887097.278 7064519.984 10 0 59256 37800.00000 0 -5953535.097 -24527382.719 3917709.096 10 0 59256 38700.00000 0 -6221703.022 -24760579.980 695091.620 10 0 59256 39600.00000 0 -6400248.265 -24591065.922 -2540975.679 10 0 59256 40500.00000 0 -6434672.268 -24036609.302 -5727841.006 10 0 59256 41400.00000 0 -6275806.311 -23127579.008 -8803760.534 10 0 59256 42300.00000 0 -5882128.539 -21905645.152 -11709087.127 10 0 59256 43200.00000 0 -5221767.405 -20422026.276 -14387422.393 10 0 59256 44100.00000 0 -4274106.087 -18735354.728 -16786710.024 10 0 59256 45000.00000 0 -3030918.757 -16909248.401 -18860249.295 10 0 59256 45900.00000 0 -1496988.672 -15009689.353 -20567608.946 10 0 59256 46800.00000 0 309820.509 -13102318.208 -21875423.354 10 0 59256 47700.00000 0 2359046.070 -11249757.077 -22758054.894 10 0 59256 48600.00000 0 4608643.086 -9509072.881 -23198108.814 10 0 59256 49500.00000 0 7006497.126 -7929487.452 -23186789.557 10 0 59256 50400.00000 0 9492372.016 -6550430.848 -22724090.353 10 0 59256 51300.00000 0 12000213.273 -5400020.172 -21818811.039 10 0 59256 52200.00000 0 14460712.365 -4494028.489 -20488402.367 10 0 59256 53100.00000 0 16804025.184 -3835387.973 -18758638.508 10 0 59256 54000.00000 0 18962531.090 -3414248.727 -16663123.010 10 0 59256 54900.00000 0 20873516.427 -3208591.017 -14242637.012 10 0 59256 55800.00000 0 22481669.033 -3185364.961 -11544342.065 10 0 59256 56700.00000 0 23741277.874 -3302108.760 -8620853.222 10 0 59256 57600.00000 0 24618044.259 -3508975.818 -5529201.062 10 0 59256 58500.00000 0 25090427.513 -3751083.208 -2329704.103 10 0 59256 59400.00000 0 25150468.015 -3971079.917 915224.887 10 0 59256 60300.00000 0 24804053.081 -4111823.718 4142313.642 10 0 59256 61200.00000 0 24070615.191 -4119050.976 7288680.151 10 0 59256 62100.00000 0 22982276.672 -3943924.184 10293071.278 10 0 59256 63000.00000 0 21582478.625 -3545347.703 13097064.670 10 0 59256 63900.00000 0 19924153.886 -2891952.594 15646209.370 10 0 59256 64800.00000 0 18067522.920 -1963666.163 17891082.555 10 0 59256 65700.00000 0 16077607.016 -752799.932 19788241.944 10 0 59256 66600.00000 0 14021564.462 735389.270 21301056.085 10 0 59256 67500.00000 0 11965961.943 2482687.989 22400397.679 10 0 59256 68400.00000 0 9974095.149 4458464.273 23065188.146 10 0 59256 69300.00000 0 8103469.724 6620731.965 23282784.727 10 0 59256 70200.00000 0 6403546.036 8917696.266 23049204.539 10 0 59256 71100.00000 0 4913839.640 11289716.087 22369183.025 10 0 59256 72000.00000 0 3662454.148 13671601.795 21256067.110 10 0 59256 72900.00000 0 2665104.961 15995153.665 19731546.234 10 0 59256 73800.00000 0 1924671.991 18191836.754 17825227.010 10 0 59256 74700.00000 0 1431297.821 20195482.531 15574059.901 10 0 59256 75600.00000 0 1163025.368 21944906.675 13021628.620 10 0 59256 76500.00000 0 1086947.101 23386335.884 10217315.278 10 0 59256 77400.00000 0 1160817.064 24475544.193 7215356.457 10 0 59256 78300.00000 0 1335057.903 25179611.062 4073807.285 10 0 59256 79200.00000 0 1555078.910 25478228.791 853432.269 10 0 59256 80100.00000 0 1763808.180 25364505.008 -2383456.779 10 0 59256 81000.00000 0 1904332.962 24845226.640 -5574194.394 10 0 59256 81900.00000 0 1922537.540 23940573.687 -8656964.558 10 0 59256 82800.00000 0 1769627.803 22683293.818 -11571990.628 10 0 59256 83700.00000 0 1404435.999 21117370.989 -14262689.649 10 0 59256 84600.00000 0 795407.869 19296242.297 -16676769.038 10 0 59256 85500.00000 0 -77812.672 17280636.156 -18767244.399 10 0 59257 0.00000 0 -1223269.794 15136120.795 -20493358.639 10 0 59257 900.00000 0 -2636102.530 12930464.249 -21821384.355 10 0 59257 1800.00000 0 -4298498.294 10730915.321 -22725292.872 10 0 59257 2700.00000 0 -6180200.192 8601518.916 -23187276.653 10 0 59257 3600.00000 0 -8239547.588 6600577.058 -23198113.579 10 0 59257 4500.00000 0 -10425010.379 4778362.649 -22757364.788 10 0 59257 5400.00000 0 -12677154.454 3175181.659 -21873401.010 10 0 59257 6300.00000 0 -14930957.988 1819865.592 -20563255.374 10 0 59257 7200.00000 0 -17118382.504 728758.112 -18852304.298 10 0 59257 8100.00000 0 -19171091.407 -94761.134 -16773781.513 10 0 59257 9000.00000 0 -21023201.703 -660195.208 -14368133.833 10 0 59257 9900.00000 0 -22613952.520 -989294.603 -11682230.852 10 0 59257 10800.00000 0 -23890177.144 -1114895.434 -8768444.042 10 0 59257 11700.00000 0 -24808473.263 -1079281.316 -5683613.774 10 0 59257 12600.00000 0 -25336978.776 -932139.824 -2487925.588 10 0 59257 13500.00000 0 -25456677.466 -728202.166 756280.877 10 0 59257 14400.00000 0 -25162179.055 -524668.358 3985745.303 10 0 59257 15300.00000 0 -24461940.947 -378529.438 7137536.391 10 0 59257 16200.00000 0 -23377923.109 -343902.445 10150291.732 10 0 59257 17100.00000 0 -21944691.957 -469492.991 12965422.167 10 0 59257 18000.00000 0 -20208012.699 -796294.226 15528256.016 10 0 59257 18900.00000 0 -18222991.201 -1355620.327 17789100.449 10 0 59257 19800.00000 0 -16051845.155 -2167557.767 19704199.470 10 0 59257 20700.00000 0 -13761399.458 -3239899.358 21236570.548 10 0 59257 21600.00000 0 -11420411.532 -4567605.194 22356704.941 10 0 59257 22500.00000 0 -9096838.522 -6132812.298 23043119.774 10 0 59257 23400.00000 0 -6855159.899 -7905391.587 23282752.986 10 0 59257 24300.00000 0 -4753865.751 -9844028.157 23071195.448 10 0 59257 25200.00000 0 -2843213.378 -11897779.388 22412757.534 10 0 59257 26100.00000 0 -1163343.211 -14008045.821 21320370.311 10 0 59257 27000.00000 0 257170.218 -16110873.222 19815324.378 10 0 59257 27900.00000 0 1402274.714 -18139490.890 17926851.997 10 0 59257 28800.00000 0 2268866.860 -20026981.751 15691560.738 10 0 59257 29700.00000 0 2866672.925 -21708974.614 13152729.283 10 0 59257 30600.00000 0 3217590.902 -23126248.033 10359478.267 10 0 59257 31500.00000 0 3354522.285 -24227138.708 7365831.264 10 0 59257 32400.00000 0 3319743.124 -24969655.253 4229682.895 10 0 59257 33300.00000 0 3162882.748 -25323209.996 1011692.724 10 0 59257 34200.00000 0 2938594.734 -25269896.838 -2225874.760 10 0 59257 35100.00000 0 2704017.555 -24805261.703 -5420342.810 10 0 59257 36000.00000 0 2516131.192 -23938532.746 -8509825.622 10 0 59257 36900.00000 0 2429120.613 -22692299.628 -11434419.453 10 0 59257 37800.00000 0 2491857.029 -21101653.864 -14137359.195 10 0 59257 38700.00000 0 2745603.344 -19212824.497 -16566118.345 10 0 59257 39600.00000 0 3222041.214 -17081364.393 -18673431.105 10 0 59257 40500.00000 0 3941704.115 -14769961.196 -20418216.695 10 0 59257 41400.00000 0 4912884.235 -12345962.727 -21766387.668 10 0 59257 42300.00000 0 6131061.403 -9878718.937 -22691525.866 10 0 59257 43200.00000 0 7578880.688 -7436850.332 -23175412.152 10 0 59257 44100.00000 0 9226682.376 -5085556.307 -23208398.588 10 0 59257 45000.00000 0 11033564.730 -2884075.639 -22789614.588 10 0 59257 45900.00000 0 12948937.389 -883405.342 -21927001.712 10 0 59257 46800.00000 0 14914502.250 875626.363 -20637175.007 10 0 59257 47700.00000 0 16866580.028 2363851.680 -18945112.277 10 0 59257 48600.00000 0 18738685.555 3564756.510 -16883676.153 10 0 59257 49500.00000 0 20464243.673 4474933.303 -14492977.408 10 0 59257 50400.00000 0 21979330.830 5103974.416 -11819591.516 10 0 59257 51300.00000 0 23225325.964 5473810.914 -8915643.774 10 0 59257 52200.00000 0 24151357.622 5617525.708 -5837781.352 10 0 59257 53100.00000 0 24716442.665 5577692.612 -2646053.508 10 0 59257 54000.00000 0 24891225.121 5404313.566 597276.763 10 0 59257 54900.00000 0 24659240.925 5152443.688 3828964.666 10 0 59257 55800.00000 0 24017654.805 4879607.163 6986033.141 10 0 59257 56700.00000 0 22977438.493 4643115.916 10007013.849 10 0 59257 57600.00000 0 21562983.560 4497406.768 12833153.899 10 0 59257 58500.00000 0 19811166.474 4491511.483 15409563.621 10 0 59257 59400.00000 0 17769906.785 4666767.823 17686282.535 10 0 59257 60300.00000 0 15496280.574 5054868.790 19619242.895 10 0 59257 61200.00000 0 13054269.743 5676332.154 21171112.659 10 0 59257 62100.00000 0 10512242.334 6539454.109 22312002.816 10 0 59257 63000.00000 0 7940269.514 7639790.081 23020026.949 10 0 59257 63900.00000 0 5407390.962 8960183.309 23281704.015 10 0 59257 64800.00000 0 2978941.460 10471339.001 23092198.511 10 0 59257 65700.00000 0 714048.272 12132919.249 22455395.130 10 0 59257 66600.00000 0 -1336598.823 13895112.522 21383807.987 10 0 59257 67500.00000 0 -3132614.747 15700612.288 19898327.285 10 0 59257 68400.00000 0 -4645348.731 17486922.768 18027808.943 10 0 59257 69300.00000 0 -5858819.441 19188896.576 15808515.288 10 0 59257 70200.00000 0 -6770119.160 20741399.664 13283417.341 10 0 59257 71100.00000 0 -7389272.167 22081993.842 10501371.426 10 0 59257 72000.00000 0 -7738554.691 23153526.271 7516185.153 10 0 59257 72900.00000 0 -7851305.832 23906519.057 4385589.613 10 0 59257 73800.00000 0 -7770279.677 24301259.996 1170136.399 10 0 59257 74700.00000 0 -7545607.651 24309507.519 -2067960.300 10 0 59257 75600.00000 0 -7232456.354 23915738.516 -5266015.331 10 0 59257 76500.00000 0 -6888478.831 23117886.257 -8362075.821 10 0 59257 77400.00000 0 -6571165.981 21927536.479 -11296113.435 10 0 59257 78300.00000 0 -6335209.263 20369571.955 -14011183.158 10 0 59257 79200.00000 0 -6229985.717 18481278.570 -16454526.534 10 0 59257 80100.00000 0 -6297271.556 16310948.283 -18578598.018 10 0 59257 81000.00000 0 -6569281.471 13916035.280 -20341994.498 10 0 59257 81900.00000 0 -7067117.520 11360940.303 -21710269.629 10 0 59257 82800.00000 0 -7799694.680 8714513.933 -22656616.578 10 0 59257 83700.00000 0 -8763190.442 6047381.551 -23162405.137 10 0 59257 84600.00000 0 -9941044.038 3429200.509 -23217561.790 10 0 59257 85500.00000 0 -11304507.800 925963.425 -22820784.095 10 0 59258 0.00000 0 -12813729.859 -1402540.094 -21979583.952 10 0 59258 900.00000 0 -14419324.939 -3504997.027 -20710157.304 10 0 59258 1800.00000 0 -16064368.245 -5340484.807 -19037081.962 10 0 59258 2700.00000 0 -17686730.273 -6879943.729 -16992847.596 10 0 59258 3600.00000 0 -19221654.037 -8107147.339 -14617226.714 10 0 59258 4500.00000 0 -20604465.995 -9019128.534 -11956498.138 10 0 59258 5400.00000 0 -21773305.422 -9626044.306 -9062538.234 10 0 59258 6300.00000 0 -22671755.752 -9950485.371 -5991798.093 10 0 59258 7200.00000 0 -23251265.232 -10026261.035 -2804187.729 10 0 59258 8100.00000 0 -23473253.131 -9896712.433 438109.470 10 0 59258 9000.00000 0 -23310811.260 -9612627.685 3671867.184 10 0 59258 9900.00000 0 -22749928.094 -9229849.643 6834065.488 10 0 59258 10800.00000 0 -21790183.548 -8806680.048 9863132.920 10 0 59258 11700.00000 0 -20444885.372 -8401192.327 12700155.520 10 0 59258 12600.00000 0 -18740642.276 -8068568.706 15290028.079 10 0 59258 13500.00000 0 -16716392.972 -7858575.639 17582524.657 10 0 59258 14400.00000 0 -14421933.272 -7813284.926 19533267.586 10 0 59258 15300.00000 0 -11916004.410 -7965136.732 21104576.746 10 0 59258 16200.00000 0 -9264023.651 -8335425.539 22266183.837 10 0 59258 17100.00000 0 -6535552.519 -8933271.721 22995799.419 10 0 59258 18000.00000 0 -3801608.271 -9755120.609 23279523.543 10 0 59258 18900.00000 0 -1131929.811 -10784788.730 23112093.986 10 0 59258 19800.00000 0 1407689.704 -11994054.057 22496969.051 10 0 59258 20700.00000 0 3757894.581 -13343764.697 21446244.872 10 0 59258 21600.00000 0 5867981.618 -14785419.208 19980409.951 10 0 59258 22500.00000 0 7697749.087 -16263152.597 18127942.311 10 0 59258 23400.00000 0 9218905.437 -17716045.525 15924757.254 10 0 59258 24300.00000 0 10415981.718 -19080661.168 13413516.124 10 0 59258 25200.00000 0 11286711.907 -20293704.958 10642808.717 10 0 59258 26100.00000 0 11841866.981 -21294697.239 7666224.260 10 0 59258 27000.00000 0 12104550.904 -22028548.312 4541327.740 10 0 59258 27900.00000 0 12108988.666 -22447929.073 1328560.126 10 0 59258 28800.00000 0 11898857.292 -22515338.588 -1909917.398 10 0 59258 29700.00000 0 11525229.649 -22204782.111 -5111413.947 10 0 59258 30600.00000 0 11044216.948 -21502988.828 -8213912.187 10 0 59258 31500.00000 0 10514408.417 -20410117.343 -11157261.680 10 0 59258 32400.00000 0 9994215.362 -18939917.877 -13884339.873 10 0 59258 33300.00000 0 9539231.015 -17119342.488 -16342158.566 10 0 59258 34200.00000 0 9199717.287 -14987617.435 -18482894.497 10 0 59258 35100.00000 0 9018324.607 -12594814.173 -20264824.015 10 0 59258 36000.00000 0 9028141.639 -9999976.265 -21653143.406 10 0 59258 36900.00000 0 9251158.256 -7268878.324 -22620658.356 10 0 59258 37800.00000 0 9697208.112 -4471508.580 -23148328.433 10 0 59258 38700.00000 0 10363437.326 -1679378.514 -23225655.010 10 0 59258 39600.00000 0 11234323.752 1037229.158 -22850903.884 10 0 59258 40500.00000 0 12282248.228 3611959.982 -22031156.952 10 0 59258 41400.00000 0 13468595.738 5984922.228 -20782190.546 10 0 59258 42300.00000 0 14745341.725 8104950.098 -19128181.418 10 0 59258 43200.00000 0 16057057.869 9931500.671 -17101244.969 10 0 59258 44100.00000 0 17343253.265 11436104.611 -14740813.732 10 0 59258 45000.00000 0 18540952.058 12603309.337 -12092867.808 10 0 59258 45900.00000 0 19587397.977 13431075.020 -9209032.196 10 0 59258 46800.00000 0 20422770.222 13930607.070 -6145559.127 10 0 59258 47700.00000 0 20992794.310 14125633.078 -2962216.324 10 0 59258 48600.00000 0 21251135.807 14051156.213 278895.676 10 0 59258 49500.00000 0 21161474.112 13751739.717 3514572.348 10 0 59258 50400.00000 0 20699167.411 13279397.359 6681754.189 10 0 59258 51300.00000 0 19852437.648 12691181.627 9718769.750 10 0 59258 52200.00000 0 18623025.291 12046574.137 12566546.928 10 0 59258 53100.00000 0 17026286.665 11404790.788 15169767.615 10 0 59258 54000.00000 0 15090730.542 10822117.247 17477942.729 10 0 59258 54900.00000 0 12857014.570 10349388.285 19446386.688 10 0 59258 55800.00000 0 10376444.871 10029717.591 21037072.946 10 0 59258 56700.00000 0 7709042.665 9896573.320 22219355.219 10 0 59258 57600.00000 0 4921259.365 9972279.308 22970541.982 10 0 59258 58500.00000 0 2083435.688 10267003.533 23276314.912 10 0 59258 59400.00000 0 -732889.900 10778274.618 23130985.156 10 0 59258 60300.00000 0 -3457712.613 11491045.043 22537584.244 10 0 59258 61200.00000 0 -6025220.776 12378297.017 21507789.445 10 0 59258 62100.00000 0 -8376275.047 13402164.665 20061686.174 10 0 59258 63000.00000 0 -10460607.030 14515525.091 18227372.692 10 0 59258 63900.00000 0 -12238648.468 15663991.752 16040415.001 10 0 59258 64800.00000 0 -13682917.586 16788227.267 13543162.155 10 0 59258 65700.00000 0 -14778907.198 17826479.749 10783934.577 10 0 59258 66600.00000 0 -15525439.386 18717237.558 7816100.132 10 0 59258 67500.00000 0 -15934473.407 19401892.414 4697054.678 10 0 59258 68400.00000 0 -16030375.690 19827300.283 1487125.530 10 0 59258 69300.00000 0 -15848682.816 19948133.368 -1751582.088 10 0 59258 70200.00000 0 -15434409.248 19728924.837 -4956374.422 10 0 59258 71100.00000 0 -14839970.376 19145720.273 -8065172.400 10 0 59258 72000.00000 0 -14122807.462 18187265.795 -11017706.050 10 0 59258 72900.00000 0 -13342813.656 16855681.650 -13756677.620 10 0 59258 73800.00000 0 -12559668.704 15166591.203 -16228871.254 10 0 59258 74700.00000 0 -11830194.079 13148697.700 -18386187.764 10 0 59258 75600.00000 0 -11205839.776 10842824.000 -20186584.452 10 0 59258 76500.00000 0 -10730408.804 8300452.797 -21594901.404 10 0 59258 77400.00000 0 -10438115.904 5581825.840 -22583557.692 10 0 59258 78300.00000 0 -10352063.271 2753679.147 -23133103.204 10 0 59258 79200.00000 0 -10483198.962 -113293.264 -23232614.426 10 0 59258 80100.00000 0 -10829803.519 -2947142.763 -22879925.270 10 0 59258 81000.00000 0 -11377528.254 -5677424.845 -22081687.169 10 0 59258 81900.00000 0 -12099985.359 -8237898.602 -20853255.878 10 0 59258 82800.00000 0 -12959866.478 -10569054.106 -19218405.837 10 0 59258 83700.00000 0 -13910543.705 -12620361.743 -17208876.470 10 0 59258 84600.00000 0 -14898086.038 -14352148.844 -14863758.299 10 0 59258 85500.00000 0 -15863606.129 -15737024.296 -12228730.364 99